Weather History for Easton, MD

Change the Weather History Date:

Friday, February 7, 2014

  Actual Average Record
Temperature  
Mean Temperature 34 °F -  
Max Temperature 41 °F 41 °F 57 °F (2009)
Min Temperature 26 °F 24 °F 13 °F (1977)
Degree Days  
Heating Degree Days 32    
Moisture  
Dew Point 24 °F    
Average Humidity 76    
Maximum Humidity 93    
Minimum Humidity 45    
Precipitation  
Precipitation 0.00 in - - ()
Sea Level Pressure  
Sea Level Pressure 30.35 in    
Wind  
Wind Speed 1 mph (WNW)    
Max Wind Speed 7 mph    
Max Gust Speed -    
Visibility 10 miles    
Events      
Averages and records for this station are not official NWS values.
T = Trace of Precipitation, MM = Missing Value Source: NWS Daily Summary

Daily Weather History Graph

Daily Weather History Graph

Search for Another Location

Airport:

Trip Planner

Search our weather history database for the weather conditions in past years. The results will help you decide how hot, cold, wet, or windy it might be!

Date:

Astronomy

Feb. 07, 2014 Rise Set
Actual Time 7:04 AM EST 5:32 PM EST
Civil Twilight 6:36 AM EST 6:00 PM EST
Nautical Twilight 6:05 AM EST 6:32 PM EST
Astronomical Twilight 5:34 AM EST 7:03 PM EST
Moon 11:43 AM EST (2/7) 1:17 AM EST (2/7)
Length of Visible Light 11h 23m
Length of Day
10h 28m
First Quarter, 59% of the Moon is Illuminated
Feb 7
First Quarter
Feb 14
Full
Feb 22
Last Quarter
Mar 1
New
Mar 8
First Quarter

Hourly Weather History & Observations

Time (EST) Temp. Windchill Dew Point Humidity Pressure Visibility Wind Dir Wind Speed Gust Speed Precip Events Conditions
12:12 AM 31.6 °F - 22.8 °F 70% 30.32 in 10.0 mi Calm Calm - N/A   Clear
12:32 AM 31.6 °F - 22.6 °F 69% 30.33 in 10.0 mi Calm Calm - N/A   Clear
12:52 AM 31.1 °F - 23.4 °F 73% 30.33 in 10.0 mi Calm Calm - N/A   Clear
1:12 AM 30.2 °F - 23.4 °F 76% 30.33 in 10.0 mi Calm Calm - N/A   Clear
1:32 AM 30.0 °F - 23.5 °F 77% 30.33 in 10.0 mi Calm Calm - N/A   Clear
1:52 AM 29.5 °F - 23.9 °F 80% 30.33 in 10.0 mi Calm Calm - N/A   Clear
2:12 AM 29.3 °F - 24.1 °F 81% 30.34 in 10.0 mi Calm Calm - N/A   Clear
2:32 AM 28.4 °F - 23.9 °F 83% 30.33 in 10.0 mi Calm Calm - N/A   Clear
2:52 AM 27.5 °F - 24.1 °F 87% 30.33 in 10.0 mi Calm Calm - N/A   Clear
3:12 AM 27.5 °F - 24.4 °F 88% 30.34 in 10.0 mi Calm Calm - N/A   Clear
3:32 AM 28.8 °F - 24.8 °F 85% 30.34 in 10.0 mi Calm Calm - N/A   Clear
3:52 AM 28.2 °F - 24.8 °F 87% 30.34 in 10.0 mi Calm Calm - N/A   Clear
4:12 AM 28.8 °F - 24.8 °F 85% 30.34 in 10.0 mi Calm Calm - N/A   Clear
4:32 AM 27.7 °F - 24.8 °F 89% 30.34 in 10.0 mi Calm Calm - N/A   Clear
4:52 AM 27.1 °F - 24.4 °F 90% 30.33 in 10.0 mi Calm Calm - N/A   Clear
5:12 AM 27.1 °F - 24.6 °F 90% 30.34 in 10.0 mi Calm Calm - N/A   Clear
5:22 AM 26.4 °F - 24.4 °F 92% 30.34 in 10.0 mi Calm Calm - N/A   Clear
5:47 AM 26.6 °F - 24.8 °F 93% 30.35 in 10.0 mi Calm Calm - N/A   Clear
7:47 AM 26.6 °F - 24.8 °F 93% 30.39 in 10.0 mi Calm Calm - N/A   Clear
8:45 AM 30.2 °F - 28.4 °F 93% 30.39 in 10.0 mi Calm Calm - N/A   Clear
9:47 AM 35.6 °F 31.7 °F 21.2 °F 56% 30.39 in 10.0 mi NNW 4.6 mph - N/A   Clear
10:50 AM 37.4 °F 33.8 °F 21.2 °F 52% 30.39 in 10.0 mi NNW 4.6 mph - N/A   Clear
11:50 AM 39.2 °F 35.9 °F 21.2 °F 49% 30.37 in 10.0 mi NNW 4.6 mph - N/A   Clear
12:48 PM 39.2 °F 37.0 °F 21.2 °F 49% 30.33 in 10.0 mi WNW 3.5 mph - N/A   Clear
1:48 PM 39.2 °F 35.9 °F 21.2 °F 49% 30.32 in 10.0 mi WNW 4.6 mph - N/A   Clear
3:45 PM 41.0 °F 36.4 °F 21.2 °F 45% 30.31 in 10.0 mi SW 6.9 mph - N/A   Partly Cloudy
4:50 PM 39.2 °F 35.0 °F 24.8 °F 56% 30.31 in 10.0 mi SW 5.8 mph - N/A   Scattered Clouds
5:50 PM 37.4 °F 34.9 °F 24.8 °F 60% 30.34 in 10.0 mi SW 3.5 mph - N/A   Clear
6:50 PM 35.6 °F - 24.8 °F 65% 30.36 in 10.0 mi Calm Calm - N/A   Clear
7:50 PM 33.8 °F - 24.8 °F 70% 30.36 in 10.0 mi Calm Calm - N/A   Clear
8:50 PM 32.0 °F - 24.8 °F 75% 30.37 in 10.0 mi Calm Calm - N/A   Clear
9:34 PM 31.1 °F - 25.2 °F 79% 30.37 in 10.0 mi Calm Calm - N/A   Clear
9:54 PM 29.5 °F - 24.6 °F 82% 30.37 in 10.0 mi Calm Calm - N/A   Clear
10:14 PM 29.5 °F - 24.8 °F 83% 30.37 in 10.0 mi Calm Calm - N/A   Clear
10:34 PM 28.6 °F - 24.3 °F 84% 30.37 in 10.0 mi Calm Calm - N/A   Clear
10:55 PM 29.5 °F - 25.7 °F 86% 30.37 in 10.0 mi Calm Calm - N/A   Clear